Location: Newark
(49.9819°N, 3.0344°E)
Time: 01:11:56
(UTC+00:00)

ISS - Pass Details

Date: 25 January 2020
Orbit: 415 x 422 km, 51.6° (Epoch: 26 February)

Event Time Altitude Azimuth Distance (km) Brightness Sun altitude
Rises 19:44:35 0° 271° (W) 2,378 1.2 -31.1°
Reaches altitude 10° 19:46:42 10° 275° (W) 1,512 -0.1 -31.4°
Enters shadow 19:47:04 12° 276° (W) 1,369 -0.3 -31.5°
